Weather History for LXGB - November, 2012

Change the Weather History Date:

Monday, November 5, 2012

  Actual Average Record
Temperature  
Mean Temperature 62 °F -  
Max Temperature 66 °F 62 °F 71 °F (1996)
Min Temperature 59 °F 54 °F 53 °F (2014)
Degree Days  
Heating Degree Days 2    
Growing Degree Days 12 (Base 50)    
Moisture  
Dew Point 54 °F    
Average Humidity 76    
Maximum Humidity 88    
Minimum Humidity 46    
Precipitation  
Precipitation 0.00 in - - ()
Sea Level Pressure  
Sea Level Pressure 30.00 in    
Wind  
Wind Speed 10 mph ()    
Max Wind Speed 21 mph    
Max Gust Speed -    
Visibility 6.6 miles    
Events Rain    
Averages and records for this station are not official NWS values.
T = Trace of Precipitation, MM = Missing Value Source: Averaged Metar Reports

Daily Weather History Graph

Daily Weather History Graph

Search for Another Location

Airport or City:

Trip Planner

Search our weather history database for the weather conditions in past years. The results will help you decide how hot, cold, wet, or windy it might be!

Date:

Astronomy

Nov. 05, 2012 Rise Set
Actual Time 7:48 AM CET 6:21 PM CET
Civil Twilight 7:21 AM CET 6:47 PM CET
Nautical Twilight 6:51 AM CET 7:18 PM CET
Astronomical Twilight 6:20 AM CET 7:48 PM CET
Moon 11:44 PM CET (11/5) 12:58 PM CET (11/5)
Length of Visible Light 11h 26m
Length of Day
10h 32m
Waning Gibbous, 65% of the Moon is Illuminated
Nov 5
Waning Gibbous
Nov 7
Last Quarter
Nov 13
New
Nov 20
First Quarter
Nov 28
Full

Hourly Weather History & Observations

Time (CET) Temp. Dew Point Humidity Pressure Visibility Wind Dir Wind Speed Gust Speed Precip Events Conditions
12:50 AM 67 °F 63 °F 83% 29.94 in 7 mi WNW 16.1 mph - -  
12:50 AM 66.2 °F 62.6 °F 88% 29.92 in 6.2 mi WNW 16.1 mph - N/A   Unknown
1:50 AM 62.6 °F 59.0 °F 88% 29.95 in 6.2 mi West 20.7 mph - N/A   Unknown
2:50 AM 62.6 °F 57.2 °F 82% 29.95 in 6.2 mi West 20.7 mph - N/A   Unknown
3:50 AM 62.6 °F 57.2 °F 82% 29.95 in 6.2 mi West 18.4 mph - N/A   Unknown
4:50 AM 62.6 °F 57.2 °F 82% 29.95 in 6.2 mi West 17.3 mph - N/A   Unknown
6:50 AM 62 °F 55 °F 73% 30.00 in 12 mi West 11.5 mph - -   Mostly Cloudy
6:50 AM 62.6 °F 55.4 °F 77% 29.98 in 6.2 mi West 11.5 mph - N/A   Mostly Cloudy
7:50 AM 60.8 °F 55.4 °F 82% 30.01 in 6.2 mi West 10.4 mph - N/A   Mostly Cloudy
8:50 AM 60.8 °F 55.4 °F 82% 30.01 in 6.2 mi West 11.5 mph - N/A   Scattered Clouds
9:50 AM 60.8 °F 53.6 °F 77% 30.04 in - West 10.4 mph - N/A   Clear
10:50 AM 62.6 °F 51.8 °F 68% 30.04 in 6.2 mi West 8.1 mph - N/A   Mostly Cloudy
11:50 AM 64.4 °F 51.8 °F 64% 30.04 in 6.2 mi West 8.1 mph - N/A   Mostly Cloudy
12:50 PM 65 °F 49 °F 46% 30.03 in 12 mi West 6.9 mph - -   Scattered Clouds
12:50 PM 66.2 °F 50.0 °F 56% 30.01 in 6.2 mi West 6.9 mph - N/A   Mostly Cloudy
1:50 PM 66.2 °F 48.2 °F 52% 29.98 in 6.2 mi West 6.9 mph - N/A   Mostly Cloudy
2:50 PM 64.4 °F 48.2 °F 56% 29.98 in 6.2 mi West 6.9 mph - N/A   Mostly Cloudy
3:50 PM 60.8 °F 51.8 °F 72% 30.01 in 3.1 mi WSW 13.8 mph - N/A Rain Rain
4:50 PM 59.0 °F 50.0 °F 72% 30.01 in 5.6 mi SSW 9.2 mph - N/A Rain Light Rain
5:50 PM 59.0 °F 55.4 °F 88% 29.98 in 6.2 mi SSW 6.9 mph - N/A Rain Light Rain
6:50 PM 59 °F 53 °F 76% 30.01 in 9 mi SSW 3.5 mph - - Rain Light Rain
6:50 PM 59.0 °F 53.6 °F 82% 30.01 in 6.2 mi SSW 3.5 mph - N/A Rain Light Rain
7:50 PM 59.0 °F 51.8 °F 77% 30.01 in 6.2 mi Calm Calm - N/A   Mostly Cloudy
8:50 PM 59.0 °F 55.4 °F 88% 30.04 in 6.2 mi SSW 2.3 mph - N/A Rain Light Rain
9:50 PM 59.0 °F 55.4 °F 88% 30.04 in 6.2 mi Calm Calm - N/A Rain Light Rain
10:50 PM 59.0 °F 55.4 °F 88% 30.04 in 6.2 mi Calm Calm - N/A   Mostly Cloudy
11:50 PM 59.0 °F 55.4 °F 88% 30.04 in 6.2 mi Calm Calm - N/A   Unknown